Regional Weather Roundup
Issued by NWS

Home | Current Version | Previous Version | Graphics & Text | Print | Product List | Glossary On
Versions: 1 2 3 4 5 6 7 8 9 10 11 12 13 14 15 16 17 18 19 20 21 22 23 24 25 26 27 28 29 30 31 32 33 34 35 36 37 38 39 40 41 42 43 44 45 46 47 48 49 50
000
ASUS43 KLOT 280300
RWRIL

ILLINOIS REGIONAL WEATHER ROUNDUP
NATIONAL WEATHER SERVICE CHICAGO/ROMEOVILLE IL
900 PM CST TUE JAN 27 2015

NOTE: "FAIR" INDICATES FEW OR NO CLOUDS BELOW 12,000 FEET WITH NO
SIGNIFICANT WEATHER AND/OR OBSTRUCTIONS TO VISIBILITY.

* THESE STATIONS ARE NOT UNDER NWS QUALITY CONTROL. THEY ALSO MAY NOT
  REPORT WEATHER SUCH AS PRECIPITATION OR FOG.

ILZ001-002-007-009-015-016-024-280400-
NORTHWEST ILLINOIS

CITY           SKY/WX    TMP DP  RH WIND       PRES   REMARKS
MOLINE         CLOUDY    27  22  81 SE7       30.23S WCI  19
STERLING*      CLOUDY    28  23  80 SE5       30.23F WCI  23
$$

ILZ003-004-008-010-011-017-018-280400-
NORTH CENTRAL ILLINOIS

CITY           SKY/WX    TMP DP  RH WIND       PRES   REMARKS
ROCKFORD       MOCLDY    22  18  85 CALM      30.26R
$$

ILZ005-006-012>014-019>023-280400-
NORTHEAST ILLINOIS

CITY           SKY/WX    TMP DP  RH WIND       PRES   REMARKS
CHICAGO-OHARE  PTCLDY    24  17  74 E5        30.23S WCI  18
CHICAGO-MIDWAY PTCLDY    28  19  69 NE6       30.24S WCI  22
AURORA         CLEAR     22  15  75 CALM      30.24R
WAUKEGAN       PTCLDY    16  12  84 CALM      30.22F
DUPAGE AIRPORT PTCLDY    22  15  75 CALM      30.23S
WHEELING       CLEAR     20  15  81 CALM      30.25F
NORTHERLY ISL    N/A     27  18  69 NE8         N/A  WCI  19
$$

LMZ740>746-280400-
SOUTHERN LAKE MICHIGAN

STATION/POSITION SKY/WX   TEMP    WIND        PRES    VSBY  WAVE
                          AIR SEA DIR/SP/G                  HT/PER
                          (F)     (DEG/KT/KT) (MB)    (MI)  (FT/S)
WAUKEGAN HARBOR            26      CALM  / 10   N/A
HARRISON CRIB              27      20/  9/ 10   N/A
BURNHAM HARBOR             27      40/  5/ 10   N/A
CALUMET HARBOR             26      20/  5/  8   N/A
MICHIGAN CITY              27      10/  9/ 11   N/A
$$

ILZ025>027-034>036-040-047-049-050-058-095>099-280400-
WEST-CENTRAL ILLINOIS

CITY           SKY/WX    TMP DP  RH WIND       PRES   REMARKS
QUINCY         CLOUDY    29  26  89 SE8       30.22R FOG     WCI  21
$$

ILZ028>032-037-038-041>044-048-051>054-059>061-280400-
CENTRAL ILLINOIS

CITY           SKY/WX    TMP DP  RH WIND       PRES   REMARKS
DECATUR        PTCLDY    26  22  84 E6        30.24S WCI  19
PEORIA         CLOUDY    31  24  75 SE3       30.24F
SPRINGFIELD    CLOUDY    32  25  75 SE8       30.24F WCI  25
TAYLORVILLE    NOT AVBL
$$

ILZ033-039-045-046-055>057-062-063-280400-
EAST-CENTRAL ILLINOIS

CITY           SKY/WX    TMP DP  RH WIND       PRES   REMARKS
CHAMPAIGN      CLEAR     23  19  85 E3        30.23F
MATTOON        CLEAR     25  22  88 NE3       30.23F
$$

ILZ079-100>102-280400-
SOUTHWEST ILLINOIS

CITY           SKY/WX    TMP DP  RH WIND       PRES   REMARKS
CAHOKIA*       CLEAR     30  26  85 E5        30.25R WCI  25
$$

ILZ064>066-069>071-074>076-080>082-084>086-088>090-092>094-280400-
SOUTH-CENTRAL ILLINOIS

CITY           SKY/WX    TMP DP  RH WIND       PRES   REMARKS
CARBONDALE     CLEAR     32  26  78 E3        30.25R
MT. VERNON     CLEAR     27  21  80 NE3       30.26R
$$

ILZ067-068-072-073-078-083-087-091-280400-
SOUTHEAST ILLINOIS

CITY           SKY/WX    TMP DP  RH WIND       PRES   REMARKS
LAWRENCEVILLE  CLOUDY    31  25  78 N8        30.26S WCI  23
$$

ABBREVIATIONS USED IN REMARKS
   TC - TEMPERATURE IN CELSIUS
  WCI - WIND CHILL INDEX
   HX - HEAT INDEX
  VSB - VISIBILITY
$$




USA.gov is the U.S. government's official web portal to all federal, state and local government web resources and services.